WZZ6307 LHBP-LIMJ

Flight info

Callsign WZZ6307
Flight time 1h 25m
Altitude 36000
Route GILEP DCT ZOLKU DCT SUNIS DCT RADLY DCT ABISO DCT RIFEN DCT KOPER DCT NISIL DCT BEROK DCT MIVKI M730 KALMO
Aircraft A320/M-SDE1E2E3FGIJ1J4RWXY/LB1

Departure

Time 2026-04-14 10:39
Airport Budapest Liszt Ferenc International Airport (LHBP)

Arrival

Time 2026-04-14 12:05
Airport Genoa Cristoforo Colombo Airport (LIMJ)
Time Latitude Longitude Altitude Speed Heading
2026-04-14 09:59 47.43507 19.26473 458 ft 0 kts 222°
2026-04-14 10:28 47.43515 19.26484 457 ft 4 kts 222°
2026-04-14 10:28 47.43533 19.26509 457 ft 4 kts 234°
2026-04-14 10:28 47.43541 19.26542 457 ft 4 kts 287°
2026-04-14 10:29 47.43528 19.26575 454 ft 4 kts 314°
2026-04-14 10:29 47.43510 19.26600 456 ft 1 kts 312°
2026-04-14 10:29 47.43510 19.26601 456 ft 0 kts 312°
2026-04-14 10:35 47.43522 19.26581 455 ft 6 kts 312°
2026-04-14 10:35 47.43569 19.26506 457 ft 13 kts 312°
2026-04-14 10:35 47.43629 19.26409 457 ft 14 kts 312°
2026-04-14 10:36 47.43678 19.26291 457 ft 14 kts 279°
2026-04-14 10:36 47.43675 19.26135 457 ft 16 kts 268°
2026-04-14 10:36 47.43721 19.25993 457 ft 14 kts 313°
2026-04-14 10:36 47.43796 19.25995 457 ft 13 kts 39°
2026-04-14 10:37 47.43866 19.26088 458 ft 14 kts 42°
2026-04-14 10:37 47.43943 19.26193 458 ft 16 kts 42°
2026-04-14 10:37 47.44014 19.26285 459 ft 11 kts 42°
2026-04-14 10:37 47.44056 19.26358 466 ft 7 kts 62°
2026-04-14 10:38 47.44069 19.26417 469 ft 6 kts 77°
2026-04-14 10:38 47.44070 19.26513 470 ft 12 kts 104°
2026-04-14 10:38 47.44043 19.26568 470 ft 0 kts 133°
2026-04-14 10:38 47.44022 19.26602 468 ft 25 kts 132°
2026-04-14 10:39 47.43744 19.27049 474 ft 91 kts 133°
2026-04-14 10:39 47.43193 19.27940 462 ft 141 kts 132°
2026-04-14 10:39 47.42457 19.29119 760 ft 159 kts 134°
2026-04-14 10:39 47.41832 19.30404 1443 ft 155 kts 115°
2026-04-14 10:40 47.41332 19.31817 2138 ft 155 kts 119°
2026-04-14 10:40 47.40787 19.33243 2532 ft 167 kts 120°
2026-04-14 10:40 47.40201 19.34852 2948 ft 186 kts 119°
2026-04-14 10:40 47.39568 19.36590 3279 ft 208 kts 120°
2026-04-14 10:41 47.38828 19.38577 3776 ft 227 kts 121°
2026-04-14 10:41 47.37803 19.40418 4421 ft 242 kts 148°
2026-04-14 10:41 47.36153 19.41037 5178 ft 254 kts 184°
2026-04-14 10:41 47.34522 19.40040 6045 ft 265 kts 219°
2026-04-14 10:42 47.33392 19.37824 6731 ft 275 kts 240°
2026-04-14 10:42 47.32602 19.35272 7102 ft 277 kts 246°
2026-04-14 10:42 47.31868 19.32645 7963 ft 276 kts 246°
2026-04-14 10:42 47.31134 19.30013 8872 ft 277 kts 247°
2026-04-14 10:43 47.30450 19.27348 9729 ft 280 kts 255°
2026-04-14 10:43 47.30222 19.24472 10420 ft 288 kts 264°
2026-04-14 10:43 47.30080 19.21399 10635 ft 312 kts 265°
2026-04-14 10:43 47.29938 19.18101 10931 ft 329 kts 265°
2026-04-14 10:44 47.29800 19.14743 11533 ft 335 kts 265°
2026-04-14 10:44 47.29655 19.11295 12213 ft 338 kts 265°
2026-04-14 10:44 47.29502 19.07802 12878 ft 342 kts 265°
2026-04-14 10:44 47.29346 19.04280 13558 ft 345 kts 265°
2026-04-14 10:45 47.29190 19.00769 14192 ft 348 kts 264°
2026-04-14 10:45 47.29032 18.97188 14764 ft 352 kts 265°
2026-04-14 10:45 47.28870 18.93572 15339 ft 355 kts 264°
2026-04-14 10:45 47.28706 18.89921 15904 ft 358 kts 264°
2026-04-14 10:46 47.28537 18.86229 16459 ft 362 kts 264°
2026-04-14 10:46 47.28368 18.82554 17014 ft 365 kts 264°
2026-04-14 10:46 47.28192 18.78790 17570 ft 369 kts 264°
2026-04-14 10:46 47.28011 18.74980 18123 ft 373 kts 264°
2026-04-14 10:47 47.27831 18.71184 18640 ft 376 kts 264°
2026-04-14 10:47 47.27648 18.67314 19145 ft 379 kts 264°
2026-04-14 10:47 47.27462 18.63419 19666 ft 382 kts 264°
2026-04-14 10:47 47.27273 18.59505 20206 ft 384 kts 264°
2026-04-14 10:48 47.27081 18.55551 20723 ft 386 kts 264°
2026-04-14 10:48 47.26889 18.51644 21218 ft 389 kts 264°
2026-04-14 10:48 47.26693 18.47656 21723 ft 391 kts 264°
2026-04-14 10:48 47.26494 18.43630 22225 ft 393 kts 264°
2026-04-14 10:49 47.26293 18.39583 22695 ft 396 kts 264°
2026-04-14 10:49 47.26094 18.35570 23168 ft 398 kts 264°
2026-04-14 10:49 47.25887 18.31462 23624 ft 401 kts 264°
2026-04-14 10:49 47.25677 18.27346 24016 ft 403 kts 264°
2026-04-14 10:50 47.25467 18.23259 24381 ft 406 kts 264°
2026-04-14 10:50 47.25252 18.19106 24766 ft 408 kts 264°
2026-04-14 10:50 47.25033 18.14914 25137 ft 410 kts 264°
2026-04-14 10:50 47.24815 18.10709 25503 ft 413 kts 264°
2026-04-14 10:51 47.24593 18.06477 25865 ft 415 kts 264°
2026-04-14 10:51 47.24366 18.02236 26219 ft 417 kts 264°
2026-04-14 10:51 47.24138 17.97992 26572 ft 419 kts 264°
2026-04-14 10:51 47.23903 17.93672 26931 ft 422 kts 264°
2026-04-14 10:52 47.23669 17.89399 27281 ft 424 kts 263°
2026-04-14 10:52 47.23429 17.85051 27647 ft 426 kts 264°
2026-04-14 10:52 47.23189 17.80685 28017 ft 429 kts 263°
2026-04-14 10:52 47.22944 17.76296 28380 ft 431 kts 263°
2026-04-14 10:53 47.22779 17.73371 28611 ft 432 kts 263°
2026-04-14 10:53 47.22529 17.68944 28946 ft 435 kts 263°
2026-04-14 10:53 47.22198 17.63047 29444 ft 437 kts 263°
2026-04-14 10:53 47.22032 17.60088 29776 ft 436 kts 263°
2026-04-14 10:54 47.21780 17.55624 30246 ft 435 kts 263°
2026-04-14 10:54 47.21523 17.51161 30628 ft 435 kts 263°
2026-04-14 10:54 47.21264 17.46764 30993 ft 436 kts 263°
2026-04-14 10:54 47.20999 17.42299 31341 ft 437 kts 263°
2026-04-14 10:55 47.20733 17.37824 31711 ft 437 kts 263°
2026-04-14 10:55 47.20472 17.33419 32070 ft 438 kts 263°
2026-04-14 10:55 47.20207 17.28943 32447 ft 438 kts 263°
2026-04-14 10:55 47.19941 17.24489 32821 ft 439 kts 263°
2026-04-14 10:56 47.19672 17.20019 33198 ft 439 kts 263°
2026-04-14 10:56 47.19400 17.15548 33574 ft 439 kts 263°
2026-04-14 10:56 47.19124 17.11068 33955 ft 439 kts 262°
2026-04-14 10:56 47.18846 17.06601 34292 ft 439 kts 262°
2026-04-14 10:57 47.18570 17.02126 34633 ft 439 kts 262°
2026-04-14 10:57 47.18296 16.97671 34977 ft 437 kts 262°
2026-04-14 10:57 47.18019 16.93216 35333 ft 436 kts 262°
2026-04-14 10:57 47.17739 16.88789 35684 ft 435 kts 262°
2026-04-14 10:58 47.17457 16.84376 35997 ft 434 kts 262°
2026-04-14 10:58 47.16882 16.75487 36086 ft 442 kts 262°
2026-04-14 10:59 47.16300 16.66443 36088 ft 444 kts 262°
2026-04-14 10:59 47.15710 16.57416 36095 ft 444 kts 261°
2026-04-14 11:00 47.15099 16.48359 36093 ft 444 kts 261°
2026-04-14 11:00 47.14422 16.39353 36099 ft 442 kts 256°
2026-04-14 11:01 47.12420 16.30919 36095 ft 435 kts 238°
2026-04-14 11:01 47.09254 16.23389 36104 ft 433 kts 234°
2026-04-14 11:02 47.06062 16.15927 36109 ft 434 kts 235°
2026-04-14 11:02 47.02846 16.08419 36112 ft 433 kts 234°
2026-04-14 11:03 46.99637 16.00941 36109 ft 433 kts 234°
2026-04-14 11:03 46.96417 15.93478 36109 ft 433 kts 234°
2026-04-14 11:04 46.93188 15.86017 36111 ft 433 kts 234°
2026-04-14 11:04 46.89980 15.78619 36110 ft 433 kts 234°
2026-04-14 11:05 46.86749 15.71169 36112 ft 433 kts 234°
2026-04-14 11:05 46.83517 15.63734 36112 ft 432 kts 234°
2026-04-14 11:06 46.80277 15.56336 36109 ft 432 kts 234°
2026-04-14 11:06 46.77058 15.48988 36106 ft 432 kts 234°
2026-04-14 11:07 46.73816 15.41582 36102 ft 432 kts 234°
2026-04-14 11:07 46.70569 15.34221 36102 ft 432 kts 234°
2026-04-14 11:08 46.67328 15.26901 36098 ft 432 kts 234°
2026-04-14 11:08 46.64069 15.19552 36098 ft 431 kts 234°
2026-04-14 11:09 46.60814 15.12203 36098 ft 431 kts 234°
2026-04-14 11:09 46.57558 15.04854 36094 ft 431 kts 234°
2026-04-14 11:10 46.52706 14.93928 36088 ft 430 kts 234°
2026-04-14 11:10 46.49575 14.86919 36087 ft 430 kts 234°
2026-04-14 11:11 46.46328 14.79675 36084 ft 430 kts 234°
2026-04-14 11:11 46.43060 14.72390 36080 ft 430 kts 234°
2026-04-14 11:12 46.39807 14.65172 36076 ft 429 kts 234°
2026-04-14 11:12 46.36534 14.57923 36075 ft 429 kts 234°
2026-04-14 11:13 46.33258 14.50679 36072 ft 429 kts 234°
2026-04-14 11:13 46.30003 14.43487 36075 ft 429 kts 234°
2026-04-14 11:14 46.26726 14.36291 36075 ft 428 kts 234°
2026-04-14 11:14 46.23258 14.29292 36075 ft 427 kts 230°
2026-04-14 11:15 46.19575 14.22565 36069 ft 426 kts 229°
2026-04-14 11:15 46.15901 14.15894 36062 ft 426 kts 229°
2026-04-14 11:16 46.12245 14.09114 36053 ft 426 kts 230°
2026-04-14 11:16 46.08634 14.02354 36042 ft 426 kts 230°
2026-04-14 11:17 46.05008 13.95598 36031 ft 427 kts 230°
2026-04-14 11:17 46.01365 13.88847 36028 ft 427 kts 230°
2026-04-14 11:18 45.97706 13.82086 36029 ft 427 kts 229°
2026-04-14 11:18 45.94057 13.75378 36027 ft 427 kts 229°
2026-04-14 11:19 45.90401 13.68672 36035 ft 427 kts 229°
2026-04-14 11:19 45.86718 13.61920 36041 ft 427 kts 229°
2026-04-14 11:20 45.83619 13.54669 36046 ft 432 kts 240°
2026-04-14 11:20 45.80949 13.46924 36046 ft 432 kts 240°
2026-04-14 11:21 45.78268 13.39189 36045 ft 433 kts 240°
2026-04-14 11:21 45.75582 13.31502 36038 ft 432 kts 240°
2026-04-14 11:22 45.72894 13.23808 36025 ft 433 kts 240°
2026-04-14 11:22 45.70197 13.16086 36013 ft 433 kts 240°
2026-04-14 11:23 45.67489 13.08372 36003 ft 433 kts 240°
2026-04-14 11:23 45.64786 13.00692 36002 ft 434 kts 240°
2026-04-14 11:24 45.62061 12.92974 35999 ft 433 kts 240°
2026-04-14 11:24 45.59341 12.85298 35998 ft 434 kts 240°
2026-04-14 11:25 45.56618 12.77639 36001 ft 434 kts 240°
2026-04-14 11:25 45.53879 12.69942 36008 ft 435 kts 240°
2026-04-14 11:26 45.51119 12.62220 36013 ft 435 kts 240°
2026-04-14 11:26 45.48377 12.54559 36002 ft 434 kts 240°
2026-04-14 11:27 45.45629 12.46907 36006 ft 434 kts 240°
2026-04-14 11:27 45.42870 12.39259 36007 ft 434 kts 240°
2026-04-14 11:28 45.40107 12.31618 36011 ft 434 kts 240°
2026-04-14 11:28 45.37346 12.23994 36004 ft 434 kts 240°
2026-04-14 11:29 45.34559 12.16317 36003 ft 434 kts 240°
2026-04-14 11:29 45.31789 12.08723 36006 ft 434 kts 240°
2026-04-14 11:30 45.29012 12.01123 36003 ft 434 kts 240°
2026-04-14 11:30 45.26683 11.94766 35999 ft 434 kts 239°
2026-04-14 11:31 45.23426 11.85917 35997 ft 435 kts 239°
2026-04-14 11:31 45.21090 11.79583 35994 ft 435 kts 240°
2026-04-14 11:32 45.18271 11.71948 35990 ft 436 kts 240°
2026-04-14 11:32 45.15464 11.64352 35988 ft 436 kts 240°
2026-04-14 11:33 45.12605 11.56772 35960 ft 436 kts 240°
2026-04-14 11:34 45.08255 11.45466 35976 ft 437 kts 240°
2026-04-14 11:34 45.05334 11.37875 35978 ft 437 kts 240°
2026-04-14 11:35 45.02423 11.30327 35980 ft 438 kts 240°
2026-04-14 11:35 44.99427 11.22851 35981 ft 437 kts 233°
2026-04-14 11:36 44.95243 11.16655 35982 ft 435 kts 216°
2026-04-14 11:36 44.90419 11.11584 35974 ft 434 kts 216°
2026-04-14 11:37 44.85566 11.06486 35976 ft 434 kts 216°
2026-04-14 11:37 44.80731 11.01419 35989 ft 435 kts 216°
2026-04-14 11:38 44.75867 10.96339 35997 ft 435 kts 216°
2026-04-14 11:38 44.70995 10.91252 35998 ft 435 kts 216°
2026-04-14 11:39 44.66125 10.86181 36005 ft 436 kts 216°
2026-04-14 11:39 44.61269 10.81130 36013 ft 436 kts 216°
2026-04-14 11:40 44.56368 10.76047 36020 ft 436 kts 216°
2026-04-14 11:40 44.51494 10.71012 36021 ft 437 kts 216°
2026-04-14 11:41 44.46599 10.65964 36026 ft 437 kts 216°
2026-04-14 11:41 44.44155 10.63442 35861 ft 437 kts 216°
2026-04-14 11:41 44.41708 10.60915 35465 ft 437 kts 216°
2026-04-14 11:41 44.39251 10.58383 34682 ft 440 kts 216°
2026-04-14 11:42 44.36789 10.55851 33875 ft 439 kts 216°
2026-04-14 11:42 44.34333 10.53334 32965 ft 435 kts 216°
2026-04-14 11:42 44.31906 10.50851 32168 ft 429 kts 215°
2026-04-14 11:42 44.29533 10.48423 31720 ft 416 kts 215°
2026-04-14 11:43 44.27228 10.46067 31203 ft 406 kts 215°
2026-04-14 11:43 44.24971 10.43761 30704 ft 401 kts 215°
2026-04-14 11:43 44.22746 10.41423 30189 ft 400 kts 220°
2026-04-14 11:43 44.20853 10.38589 29619 ft 400 kts 233°
2026-04-14 11:44 44.19468 10.35222 29103 ft 400 kts 245°
2026-04-14 11:44 44.18662 10.31518 28567 ft 400 kts 258°
2026-04-14 11:44 44.18481 10.27647 28020 ft 402 kts 272°
2026-04-14 11:44 44.18928 10.23811 27481 ft 403 kts 284°
2026-04-14 11:45 44.19716 10.20057 26940 ft 401 kts 285°
2026-04-14 11:45 44.20500 10.16321 26405 ft 401 kts 285°
2026-04-14 11:45 44.21267 10.12642 25895 ft 399 kts 284°
2026-04-14 11:45 44.22048 10.08883 25373 ft 398 kts 285°
2026-04-14 11:46 44.22814 10.05181 24902 ft 396 kts 285°
2026-04-14 11:46 44.23565 10.01538 24459 ft 394 kts 285°
2026-04-14 11:46 44.24323 9.97862 24015 ft 392 kts 285°
2026-04-14 11:46 44.25074 9.94213 23594 ft 390 kts 285°
2026-04-14 11:47 44.25817 9.90587 23117 ft 388 kts 285°
2026-04-14 11:47 44.26555 9.86980 22694 ft 384 kts 285°
2026-04-14 11:47 44.27284 9.83416 22268 ft 379 kts 285°
2026-04-14 11:47 44.28009 9.79879 21832 ft 376 kts 285°
2026-04-14 11:48 44.28715 9.76436 21419 ft 372 kts 285°
2026-04-14 11:48 44.29421 9.72969 20981 ft 369 kts 285°
2026-04-14 11:48 44.30118 9.69533 20540 ft 366 kts 285°
2026-04-14 11:48 44.30812 9.66117 20100 ft 364 kts 285°
2026-04-14 11:49 44.31248 9.62652 19651 ft 363 kts 273°
2026-04-14 11:49 44.31167 9.59148 19192 ft 361 kts 261°
2026-04-14 11:49 44.30591 9.55741 18730 ft 360 kts 250°
2026-04-14 11:49 44.29569 9.52559 18257 ft 359 kts 241°
2026-04-14 11:50 44.28395 9.49470 17742 ft 358 kts 241°
2026-04-14 11:50 44.27230 9.46405 17282 ft 356 kts 241°
2026-04-14 11:50 44.26084 9.43395 16810 ft 354 kts 241°
2026-04-14 11:51 44.23776 9.37321 15882 ft 352 kts 241°
2026-04-14 11:51 44.22625 9.34299 15424 ft 351 kts 241°
2026-04-14 11:51 44.21513 9.31315 14956 ft 350 kts 245°
2026-04-14 11:51 44.20563 9.28195 14509 ft 349 kts 247°
2026-04-14 11:52 44.19619 9.25079 14046 ft 348 kts 247°
2026-04-14 11:52 44.18669 9.21960 13564 ft 348 kts 246°
2026-04-14 11:52 44.17728 9.18873 13091 ft 346 kts 248°
2026-04-14 11:52 44.17055 9.15700 12636 ft 343 kts 260°
2026-04-14 11:53 44.16722 9.12406 12184 ft 341 kts 263°
2026-04-14 11:53 44.16401 9.09116 11733 ft 341 kts 263°
2026-04-14 11:53 44.16083 9.05894 11294 ft 339 kts 263°
2026-04-14 11:53 44.15754 9.02630 10851 ft 338 kts 263°
2026-04-14 11:54 44.15422 8.99378 10405 ft 337 kts 263°
2026-04-14 11:54 44.15098 8.96214 10199 ft 328 kts 263°
2026-04-14 11:54 44.14779 8.93109 10074 ft 318 kts 263°
2026-04-14 11:54 44.14470 8.90104 9952 ft 308 kts 263°
2026-04-14 11:55 44.14170 8.87179 9699 ft 303 kts 263°
2026-04-14 11:55 44.13869 8.84245 9267 ft 304 kts 263°
2026-04-14 11:55 44.13790 8.81363 8988 ft 299 kts 277°
2026-04-14 11:55 44.14236 8.78567 8487 ft 292 kts 292°
2026-04-14 11:56 44.15127 8.76035 7858 ft 289 kts 301°
2026-04-14 11:56 44.16071 8.73610 7293 ft 286 kts 300°
2026-04-14 11:56 44.17013 8.71159 6737 ft 284 kts 300°
2026-04-14 11:56 44.17944 8.68715 6341 ft 284 kts 300°
2026-04-14 11:57 44.18852 8.66322 6085 ft 282 kts 300°
2026-04-14 11:57 44.19787 8.63860 5487 ft 292 kts 301°
2026-04-14 11:57 44.20739 8.61361 5254 ft 288 kts 301°
2026-04-14 11:57 44.21743 8.59047 5103 ft 265 kts 316°
2026-04-14 11:58 44.23160 8.57700 5017 ft 236 kts 346°
2026-04-14 11:58 44.24684 8.57471 5023 ft 212 kts 11°
2026-04-14 11:58 44.26070 8.57937 5027 ft 202 kts 17°
2026-04-14 11:58 44.27436 8.58450 5024 ft 203 kts 17°
2026-04-14 11:59 44.28806 8.58964 5022 ft 203 kts 17°
2026-04-14 11:59 44.30164 8.59473 4838 ft 206 kts 17°
2026-04-14 11:59 44.31560 8.59991 4476 ft 208 kts 16°
2026-04-14 11:59 44.32944 8.60502 4157 ft 201 kts 16°
2026-04-14 12:00 44.34258 8.60993 3784 ft 189 kts 16°
2026-04-14 12:00 44.35462 8.61562 3545 ft 175 kts 28°
2026-04-14 12:00 44.36404 8.62636 3437 ft 181 kts 49°
2026-04-14 12:00 44.36999 8.64172 3218 ft 178 kts 63°
2026-04-14 12:01 44.37462 8.65753 2922 ft 173 kts 64°
2026-04-14 12:01 44.37895 8.67282 2636 ft 162 kts 65°
2026-04-14 12:01 44.38271 8.68681 2489 ft 148 kts 63°
2026-04-14 12:01 44.38606 8.69983 2492 ft 139 kts 65°
2026-04-14 12:02 44.38945 8.71239 2462 ft 137 kts 61°
2026-04-14 12:02 44.39413 8.72380 2308 ft 135 kts 53°
2026-04-14 12:02 44.39946 8.73468 2042 ft 136 kts 49°
2026-04-14 12:02 44.40511 8.74515 1705 ft 134 kts 49°
2026-04-14 12:03 44.41063 8.75574 1431 ft 135 kts 50°
2026-04-14 12:03 44.41609 8.76649 1110 ft 138 kts 50°
2026-04-14 12:03 44.42011 8.77861 813 ft 140 kts 69°
2026-04-14 12:03 44.42102 8.79239 584 ft 144 kts 89°
2026-04-14 12:04 44.41889 8.80610 329 ft 145 kts 102°
2026-04-14 12:04 44.41618 8.81913 162 ft 137 kts 97°
2026-04-14 12:04 44.41388 8.83196 33 ft 132 kts 99°
2026-04-14 12:04 44.41208 8.84148 23 ft 60 kts 106°
2026-04-14 12:05 44.41136 8.84496 21 ft 20 kts 106°
2026-04-14 12:05 44.41127 8.84541 21 ft 9 kts 106°
2026-04-14 12:05 44.41095 8.84694 20 ft 20 kts 106°
2026-04-14 12:05 44.41089 8.84839 20 ft 10 kts 45°
2026-04-14 12:06 44.41159 8.84886 19 ft 11 kts 21°
2026-04-14 12:06 44.41227 8.84918 20 ft 10 kts 16°
2026-04-14 12:06 44.41287 8.84939 20 ft 9 kts 14°
2026-04-14 12:06 44.41343 8.84947 20 ft 8 kts 336°
2026-04-14 12:07 44.41369 8.84869 20 ft 8 kts 287°
2026-04-14 12:07 44.41356 8.84826 20 ft 6 kts 195°
2026-04-14 12:07 44.41316 8.84814 21 ft 1 kts 195°
2026-04-14 12:07 44.41307 8.84810 20 ft 0 kts 194°